[[{"header":{"parameterUnit":"m.s-1","parameterCategory":2,"la1":30.2991,"la2":30.254,"lo1":-89.0895,"lo2":-89.0444,"dy":0.0017,"dx":0.0017,"nx":28,"ny":28,"refTime":"2025-03-23T03:00:00:Z","depth":"0","parameterNumber":2,"parameterNumberName":"U-component_of_CURRENTS"},"data":[0,0,0,0,0,0,0,0,0,0,0,0,0,0,0,0,0,0,0,0,0,0,0,0,0,0,0,0,0,0,0,0,0,0,0,0,0,0,0,0,0,0,0,0,0,0,0,0,0,0,0,0,0,0,0,0,0,0,-0.1655,-0.1655,0,-0.1666,-0.1666,-0.1666,-0.1599,-0.1597,-0.1595,-0.1594,-0.1506,-0.1506,-0.1505,0,0,0,0,0,0,0,0,0,0,0,0,0,-0.1541,-0.1544,-0.1655,-0.1655,-0.1656,-0.1666,-0.1666,-0.1666,-0.1599,-0.1597,-0.1595,-0.1593,-0.1507,-0.1506,-0.1505,0,0,0,0,0,0,0,0,0,0,0,0,0,-0.1573,-0.1545,-0.1655,-0.1625,-0.1623,-0.1666,-0.1666,-0.1666,-0.16,-0.1597,-0.1594,-0.1592,-0.1507,-0.1506,-0.1505,-0.1548,0,0,-0.1501,-0.1501,0,0,0,0,0,0,0,0,-0.1571,-0.1577,-0.1629,-0.1627,-0.1625,-0.1631,-0.1594,-0.1623,-0.16,-0.1606,-0.1594,-0.1591,-0.1542,-0.1538,-0.1544,-0.1544,-0.154,-0.1501,-0.15,-0.15,-0.1499,0,0,0,0,0,0,0,-0.1569,-0.1576,-0.1657,-0.163,-0.1627,-0.16,-0.1602,-0.1599,-0.1584,-0.1605,-0.1601,-0.1607,-0.154,-0.1545,-0.1541,-0.1539,-0.1501,-0.15,-0.1499,-0.1499,-0.1519,-0.152,0,0,0,0,0,0,-0.1579,-0.1575,-0.1656,-0.1657,-0.1594,-0.1605,-0.1607,-0.1629,-0.1586,-0.1579,-0.1609,-0.1604,-0.1548,-0.1542,-0.1537,-0.1558,-0.15,-0.1499,-0.1498,-0.1518,-0.1519,-0.1521,0,0,0,0,0,0,-0.1577,-0.1587,-0.1656,-0.1617,-0.1624,-0.161,-0.1636,-0.1631,-0.1627,-0.1591,-0.158,-0.1609,-0.1546,-0.1539,-0.1532,-0.1555,-0.1498,-0.1497,-0.1516,-0.1518,-0.152,-0.1618,0,0,0,0,0,0,-0.1574,-0.1586,-0.1597,-0.1618,-0.1627,-0.1685,-0.1638,-0.1633,-0.1637,-0.163,-0.1589,-0.1578,-0.1543,-0.1534,-0.153,-0.1552,-0.1496,-0.1515,-0.1517,-0.1519,-0.1613,-0.1623,-0.1631,0,0,0,0,0,-0.157,-0.1603,-0.1598,-0.1607,-0.1646,-0.1686,-0.1688,-0.1666,-0.164,-0.1651,-0.1618,-0.1579,-0.1545,-0.1534,-0.153,-0.1552,-0.1514,-0.1516,-0.1519,-0.1609,-0.1621,-0.1631,0,0,0,0,0,0,-0.1547,-0.16,-0.1595,-0.1637,-0.166,-0.1676,-0.1685,-0.1676,-0.1663,-0.1643,-0.1602,-0.1591,-0.1584,-0.1563,-0.1553,-0.1564,-0.1521,-0.1523,-0.1591,-0.1602,-0.161,-0.1623,-0.1495,0,0,0,0,0,-0.1554,-0.1593,-0.163,-0.1658,-0.1677,-0.1683,-0.1692,-0.1682,-0.1679,-0.167,-0.1646,-0.1616,-0.1599,-0.1595,-0.1569,-0.1594,-0.1565,-0.1602,-0.1612,-0.1619,-0.1627,-0.1636,-0.1647,-0.153,-0.153,-0.153,0,0,-0.1545,-0.1583,-0.1598,-0.1656,-0.1669,-0.171,-0.1681,-0.1703,-0.1721,-0.1664,-0.1673,-0.1641,-0.1608,-0.1617,-0.1614,-0.1602,-0.163,-0.1623,-0.163,-0.1633,-0.164,-0.1651,-0.1661,-0.1531,-0.1531,-0.1531,0,0,-0.1568,-0.1592,-0.1638,-0.1671,-0.1708,-0.172,-0.1732,-0.1755,-0.1748,-0.1763,-0.1717,-0.1712,-0.1691,-0.1682,-0.1672,-0.1724,-0.1667,-0.1708,-0.178,-0.1789,-0.1799,-0.1808,-0.1757,-0.176,-0.1727,-0.1727,-0.1727,0,-0.1553,-0.1622,-0.1652,-0.171,-0.1736,-0.1732,-0.1779,-0.1787,-0.1796,-0.1806,-0.1769,-0.1761,-0.1726,-0.1756,-0.1762,-0.1746,-0.1719,-0.1743,-0.1802,-0.181,-0.1817,-0.1763,-0.1766,-0.1732,-0.1732,-0.1731,-0.1731,0,-0.1616,-0.1667,-0.1698,-0.1772,-0.1805,-0.1841,-0.1868,-0.1887,-0.1874,-0.1879,-0.1893,-0.1861,-0.1856,-0.1851,-0.1817,-0.1859,-0.1809,-0.1802,-0.1778,-0.1835,-0.1774,-0.1774,-0.174,-0.1738,-0.1736,-0.1735,0,0,-0.1587,-0.1719,-0.1725,-0.1766,-0.1839,-0.1868,-0.1919,-0.1967,-0.1989,-0.1992,-0.2024,-0.2009,-0.1986,-0.1973,-0.1943,-0.1961,-0.1968,-0.1908,-0.1906,-0.1861,-0.1944,-0.1841,-0.1831,-0.1976,-0.1978,-0.1979,-0.1871,0,-0.162,-0.1737,-0.1794,-0.1871,-0.1927,-0.196,-0.2006,-0.2041,-0.2052,-0.2079,-0.2072,-0.207,-0.2035,-0.2022,-0.2041,-0.1969,-0.1979,-0.1995,-0.1891,-0.1887,-0.1794,-0.1833,-0.1703,-0.1592,-0.1871,-0.1871,-0.1871,0,-0.1646,-0.1732,-0.1832,-0.1931,-0.1956,-0.1993,-0.2061,-0.21,-0.2148,-0.2156,-0.2182,-0.2157,-0.2161,-0.2124,-0.2075,-0.2083,-0.2025,-0.1985,-0.198,-0.1854,-0.1788,-0.1585,-0.1582,-0.1569,-0.1871,-0.1871,-0.1871,0,-0.1598,-0.1736,-0.1814,-0.1851,-0.1975,-0.2008,-0.2049,-0.2114,-0.2136,-0.2192,-0.2198,-0.222,-0.2177,-0.216,-0.2053,-0.2064,-0.1985,-0.1986,-0.1849,-0.1838,-0.1692,-0.1666,-0.1669,-0.1983,-0.1983,-0.1984,-0.1984,0,-0.1595,-0.165,-0.1793,-0.1834,-0.1899,-0.1985,-0.2031,-0.2084,-0.2143,-0.2152,-0.2212,-0.2197,-0.2185,-0.213,-0.2072,-0.1933,-0.1992,-0.1858,-0.1819,-0.1716,-0.1696,-0.1646,-0.1682,-0.198,-0.1981,-0.1981,-0.1982,0,-0.1515,-0.162,-0.1707,-0.1846,-0.1877,-0.1909,-0.1989,-0.2007,-0.209,-0.2103,-0.2112,-0.2144,-0.206,-0.2034,-0.1957,-0.1905,-0.1779,-0.1771,-0.1618,-0.1564,-0.1426,-0.1472,-0.1446,-0.1412,-0.1602,-0.1599,-0.1596,0,-0.1495,-0.1539,-0.1677,-0.1704,-0.1757,-0.182,-0.1841,-0.1949,-0.1965,-0.2041,-0.202,-0.1989,-0.1903,-0.1767,-0.1688,-0.1576,-0.1631,-0.1424,-0.1445,-0.1402,-0.1425,-0.1489,-0.1469,-0.1268,-0.1263,-0.1259,-0.1255,0,-0.1432,-0.1473,-0.1532,-0.1603,-0.1634,-0.1676,-0.1719,-0.1735,-0.1837,-0.1848,-0.1816,-0.1762,-0.1644,-0.1459,-0.1358,-0.1297,-0.1388,-0.1335,-0.135,-0.1216,-0.1229,-0.1179,-0.1325,-0.1219,-0.1223,-0.1225,-0.1227,-0.1229,-0.1344,-0.1359,-0.1423,-0.1472,-0.1502,-0.1505,-0.1482,-0.152,-0.152,-0.1486,-0.155,-0.1388,-0.1304,-0.1118,-0.1071,-0.0968,-0.1092,-0.0939,-0.1004,-0.1079,-0.1042,-0.1082,-0.0908,-0.091,-0.0912,-0.0913,-0.0914,0,-0.1225,-0.1247,-0.1286,-0.1325,-0.1292,-0.136,-0.1368,-0.1307,-0.1232,-0.1179,-0.1109,-0.0938,-0.08,-0.0761,-0.0689,-0.0655,-0.0691,-0.0675,-0.0752,-0.0753,-0.0807,-0.0787,-0.0509,-0.0509,-0.0509,-0.0509,-0.0509,-0.0509,-0.1154,-0.1139,-0.1176,-0.1109,-0.1114,-0.102,-0.099,-0.0911,-0.0838,-0.0632,-0.048,-0.0405,-0.0483,-0.0592,-0.0564,-0.0536,-0.0597,-0.0563,-0.0661,-0.0709,-0.074,-0.077,-0.0759,-0.048,-0.048,-0.0539,-0.054,-0.054]},{"header":{"parameterUnit":"m.s-1","parameterCategory":2,"la1":30.2991,"la2":30.254,"lo1":-89.0895,"lo2":-89.0444,"dy":0.0017,"dx":0.0017,"nx":28,"ny":28,"refTime":"2025-03-23T03:00:00:Z","depth":"0","parameterNumber":3,"parameterNumberName":"V-component_of_CURRENTS"},"data":[0,0,0,0,0,0,0,0,0,0,0,0,0,0,0,0,0,0,0,0,0,0,0,0,0,0,0,0,0,0,0,0,0,0,0,0,0,0,0,0,0,0,0,0,0,0,0,0,0,0,0,0,0,0,0,0,0,0,0.0089,0.0089,0,0.0184,0.0186,0.0187,0.0247,0.0247,0.0248,0.0248,0.0391,0.0394,0.0398,0,0,0,0,0,0,0,0,0,0,0,0,0,0.0038,0.0039,0.0089,0.009,0.009,0.0184,0.0186,0.0187,0.0247,0.0247,0.0248,0.0248,0.039,0.0394,0.0398,0,0,0,0,0,0,0,0,0,0,0,0,0,0.0092,0.0039,0.0088,0.013,0.0134,0.0184,0.0186,0.0188,0.0247,0.0247,0.0248,0.0248,0.0388,0.0394,0.0399,0.043,0,0,0.0416,0.0419,0,0,0,0,0,0,0,0,0.0089,0.0094,0.0123,0.0127,0.0132,0.0202,0.0221,0.027,0.0247,0.0207,0.0248,0.0248,0.033,0.0341,0.0361,0.0437,0.0443,0.0417,0.042,0.0422,0.0424,0,0,0,0,0,0,0,0.0085,0.0091,0.0129,0.0124,0.0129,0.0171,0.0178,0.0231,0.0269,0.0211,0.0215,0.0221,0.0334,0.0356,0.0365,0.0445,0.0416,0.0421,0.0425,0.0427,0.0598,0.0599,0,0,0,0,0,0,0.0063,0.0087,0.0126,0.0132,0.0108,0.0171,0.018,0.0181,0.0268,0.028,0.0221,0.0223,0.0346,0.0359,0.037,0.0432,0.0422,0.0428,0.0431,0.0597,0.0598,0.0599,0,0,0,0,0,0,0.0062,0.0066,0.0122,0.011,0.012,0.0171,0.0173,0.0183,0.0205,0.0275,0.0289,0.0232,0.0347,0.0363,0.0426,0.0437,0.043,0.0435,0.0595,0.0597,0.0599,0.0543,0,0,0,0,0,0,0.006,0.0065,0.0056,0.0108,0.0119,0.0147,0.0173,0.0185,0.0208,0.0212,0.0289,0.0302,0.0348,0.0417,0.0431,0.0445,0.0439,0.0594,0.0596,0.0598,0.0543,0.0543,0.0542,0,0,0,0,0,0.0058,0.004,0.0054,0.0059,0.0106,0.0147,0.0157,0.0197,0.0208,0.0217,0.0276,0.03,0.0442,0.0423,0.0439,0.0454,0.0593,0.0595,0.0598,0.0544,0.0543,0.0542,0,0,0,0,0,0,0.0012,0.0046,0.0063,0.0056,0.0097,0.0156,0.0161,0.0192,0.0244,0.0247,0.0315,0.0333,0.0393,0.0435,0.0412,0.0513,0.0522,0.0528,0.0475,0.0475,0.0474,0.0445,0.0444,0,0,0,0,0,-0.0004,-0.0006,0.0042,0.0038,0.0053,0.0107,0.0126,0.0156,0.0209,0.0231,0.0288,0.0354,0.0417,0.0452,0.0511,0.0564,0.057,0.0587,0.0587,0.0586,0.0575,0.0619,0.062,0.0608,0.0608,0.0608,0,0,-0.0024,-0.0004,-0.0006,0.0029,0.0061,0.0085,0.012,0.0145,0.017,0.0239,0.0289,0.035,0.0431,0.0493,0.0523,0.0529,0.0584,0.0589,0.0587,0.0578,0.0622,0.0622,0.0623,0.061,0.061,0.0609,0,0,-0.006,-0.0046,-0.0057,-0.0023,0.0019,0.0059,0.0063,0.0123,0.0153,0.021,0.0269,0.0337,0.0428,0.0493,0.0536,0.0569,0.0577,0.0589,0.0566,0.0608,0.0608,0.0609,0.0568,0.0566,0.0592,0.0592,0.0592,0,-0.0084,-0.0089,-0.0051,-0.0041,-0.0021,0.0043,0.0049,0.0095,0.0171,0.0197,0.0217,0.0363,0.0429,0.0514,0.0528,0.0566,0.056,0.0556,0.0603,0.0605,0.0606,0.0565,0.0563,0.0589,0.059,0.059,0.059,0,-0.012,-0.0115,-0.0117,-0.0083,-0.0054,-0.0038,0.0027,0.0062,0.0105,0.0159,0.024,0.0336,0.042,0.0461,0.0506,0.0561,0.0539,0.059,0.0594,0.0603,0.056,0.0558,0.0586,0.0587,0.0588,0.0588,0,0,-0.0185,-0.0152,-0.0152,-0.0144,-0.0076,-0.0059,-0.0015,0.0042,0.0065,0.0153,0.019,0.0318,0.0365,0.0418,0.049,0.0536,0.0534,0.0559,0.0563,0.0496,0.0557,0.0608,0.061,0.0591,0.0592,0.0592,0.0503,0,-0.0221,-0.0235,-0.0195,-0.0186,-0.0183,-0.0109,-0.0076,-0.0013,0.0052,0.0107,0.0214,0.0282,0.0352,0.0388,0.0447,0.0525,0.0536,0.0549,0.0579,0.0578,0.0605,0.0615,0.0668,0.0601,0.0502,0.0501,0.0501,0,-0.0263,-0.0265,-0.0282,-0.0246,-0.0238,-0.0216,-0.016,-0.0122,-0.0021,0.0026,0.0117,0.02,0.0292,0.0347,0.045,0.045,0.0486,0.0535,0.0534,0.0603,0.063,0.059,0.0602,0.0736,0.05,0.05,0.05,0,-0.034,-0.032,-0.0344,-0.0329,-0.0278,-0.0268,-0.0235,-0.0148,-0.0126,-0.0027,0.0001,0.0128,0.0179,0.0272,0.0394,0.0409,0.0485,0.0522,0.0582,0.0581,0.0645,0.0651,0.078,0.0565,0.0566,0.0566,0.0566,0,-0.0393,-0.0404,-0.0383,-0.0394,-0.0408,-0.0344,-0.0341,-0.0285,-0.0217,-0.0192,-0.0053,-0.0004,0.0167,0.0252,0.0349,0.0462,0.0446,0.0564,0.0582,0.0624,0.0629,0.0767,0.0806,0.0562,0.0563,0.0564,0.0564,0,-0.0462,-0.0452,-0.0472,-0.045,-0.0446,-0.0455,-0.0422,-0.0413,-0.0341,-0.0308,-0.0284,-0.0127,-0.0,0.0154,0.0297,0.0395,0.0583,0.054,0.0541,0.0564,0.0765,0.0797,0.0873,0.0965,0.0573,0.0574,0.0575,0,-0.0494,-0.0521,-0.0534,-0.055,-0.0539,-0.0545,-0.0547,-0.0486,-0.0479,-0.0373,-0.0369,-0.0228,-0.0084,0.0139,0.0335,0.0493,0.0603,0.061,0.0684,0.0783,0.0831,0.0837,0.0911,0.0703,0.0704,0.0706,0.0707,0,-0.0546,-0.056,-0.0579,-0.0629,-0.0643,-0.0664,-0.0666,-0.0689,-0.0616,-0.0546,-0.0428,-0.0293,-0.0046,0.0222,0.0437,0.0539,0.0726,0.0645,0.0776,0.0969,0.0955,0.1051,0.0689,0.0721,0.0719,0.0718,0.0718,0.0717,-0.0569,-0.0609,-0.0646,-0.0687,-0.0717,-0.0765,-0.0785,-0.0773,-0.0741,-0.0596,-0.0445,-0.01,0.0171,0.0525,0.0622,0.0876,0.0829,0.0979,0.1001,0.0991,0.1134,0.0771,0.0832,0.0831,0.083,0.083,0.0829,0,-0.0587,-0.0644,-0.0697,-0.0748,-0.0794,-0.0793,-0.0841,-0.083,-0.0786,-0.0531,-0.0307,0.0323,0.0589,0.0846,0.1114,0.1247,0.1271,0.1311,0.135,0.1407,0.1115,0.1185,0.1294,0.1294,0.1294,0.1294,0.1293,0.1293,-0.0595,-0.0665,-0.0709,-0.0793,-0.0828,-0.0866,-0.0891,-0.0851,-0.0685,-0.0231,0.0285,0.0696,0.1106,0.1325,0.1568,0.1585,0.1719,0.1664,0.1743,0.1567,0.1538,0.1511,0.1591,0.1784,0.1784,0.2059,0.2061,0.2063]}],[{"header":{"parameterUnit":"m.s-1","parameterCategory":2,"la1":30.2991,"la2":30.254,"lo1":-89.0895,"lo2":-89.0444,"dy":0.0017,"dx":0.0017,"nx":28,"ny":28,"refTime":"2025-03-23T03:00:00:Z","depth":"2","parameterNumber":2,"parameterNumberName":"U-component_of_CURRENTS"},"data":[0,0,0,0,0,0,0,0,0,0,0,0,0,0,0,0,0,0,0,0,0,0,0,0,0,0,0,0,0,0,0,0,0,0,0,0,0,0,0,0,0,0,0,0,0,0,0,0,0,0,0,0,0,0,0,0,0,0,-0.1676,-0.1678,0,-0.1733,-0.1733,-0.1733,-0.1693,-0.1691,-0.169,-0.1689,-0.1861,-0.1867,-0.1872,0,0,0,0,0,0,0,0,0,0,0,0,0,-0.152,-0.1523,-0.1676,-0.1678,-0.1679,-0.1733,-0.1733,-0.1733,-0.1693,-0.1691,-0.169,-0.1688,-0.1859,-0.1866,-0.1873,0,0,0,0,0,0,0,0,0,0,0,0,0,-0.1578,-0.1524,-0.1676,-0.1669,-0.167,-0.1733,-0.1733,-0.1733,-0.1693,-0.1691,-0.1689,-0.1688,-0.1857,-0.1865,-0.1874,-0.1965,0,0,-0.19,-0.1904,0,0,0,0,0,0,0,0,-0.1575,-0.1583,-0.1669,-0.167,-0.1671,-0.1709,-0.1741,-0.1819,-0.1694,-0.1678,-0.1689,-0.1687,-0.1826,-0.1837,-0.1842,-0.1973,-0.198,-0.1901,-0.1906,-0.191,-0.1912,0,0,0,0,0,0,0,-0.1571,-0.158,-0.1693,-0.1671,-0.1672,-0.166,-0.1665,-0.1755,-0.176,-0.1679,-0.1678,-0.1694,-0.1826,-0.1834,-0.1846,-0.1983,-0.1901,-0.1908,-0.1914,-0.1917,-0.2178,-0.2179,0,0,0,0,0,0,-0.1579,-0.1577,-0.1691,-0.1695,-0.1624,-0.1665,-0.167,-0.1694,-0.1756,-0.1765,-0.1696,-0.1692,-0.182,-0.1836,-0.1852,-0.1947,-0.191,-0.1918,-0.1923,-0.2176,-0.2178,-0.218,0,0,0,0,0,0,-0.1576,-0.1589,-0.1689,-0.1641,-0.1654,-0.167,-0.1696,-0.1696,-0.171,-0.1769,-0.1777,-0.1711,-0.1819,-0.184,-0.1935,-0.1954,-0.1922,-0.193,-0.2174,-0.2177,-0.2179,-0.2149,0,0,0,0,0,0,-0.1571,-0.1588,-0.1604,-0.1642,-0.1657,-0.1727,-0.1699,-0.1699,-0.1726,-0.1722,-0.1786,-0.1798,-0.1819,-0.1922,-0.1943,-0.1966,-0.1936,-0.2172,-0.2175,-0.2178,-0.2148,-0.2151,-0.2153,0,0,0,0,0,-0.1565,-0.1616,-0.1605,-0.1618,-0.168,-0.1729,-0.1735,-0.1735,-0.1729,-0.174,-0.1784,-0.1797,-0.1957,-0.1931,-0.1956,-0.1981,-0.217,-0.2174,-0.2178,-0.2147,-0.215,-0.2153,0,0,0,0,0,0,-0.156,-0.1618,-0.1606,-0.167,-0.1691,-0.1724,-0.1744,-0.1752,-0.1793,-0.1798,-0.1837,-0.1855,-0.1931,-0.1979,-0.1949,-0.2066,-0.2061,-0.207,-0.2029,-0.2032,-0.2035,-0.2008,-0.1944,0,0,0,0,0,-0.1567,-0.161,-0.165,-0.1692,-0.1707,-0.1725,-0.1746,-0.1754,-0.1799,-0.1812,-0.1856,-0.1914,-0.1969,-0.2017,-0.2069,-0.2165,-0.2146,-0.2194,-0.2196,-0.2198,-0.2194,-0.2154,-0.215,-0.2193,-0.2193,-0.2193,0,0,-0.1573,-0.1611,-0.1633,-0.1691,-0.1704,-0.174,-0.1731,-0.1776,-0.1803,-0.1835,-0.189,-0.1927,-0.1994,-0.2064,-0.2105,-0.211,-0.218,-0.2203,-0.2203,-0.2199,-0.2157,-0.2152,-0.2147,-0.2196,-0.2195,-0.2195,0,0,-0.161,-0.164,-0.168,-0.1705,-0.1747,-0.1765,-0.1783,-0.1826,-0.1834,-0.1922,-0.1916,-0.1966,-0.2093,-0.2101,-0.2137,-0.2201,-0.2182,-0.2226,-0.2234,-0.2194,-0.2189,-0.2184,-0.2158,-0.2151,-0.224,-0.224,-0.224,0,-0.1611,-0.1661,-0.1696,-0.1737,-0.1752,-0.1779,-0.1809,-0.1842,-0.1907,-0.1918,-0.1946,-0.2049,-0.2107,-0.2147,-0.2161,-0.2203,-0.2175,-0.2211,-0.2191,-0.2186,-0.2181,-0.2155,-0.2148,-0.2239,-0.2239,-0.2239,-0.2239,0,-0.1661,-0.17,-0.1728,-0.1776,-0.1804,-0.1839,-0.1881,-0.1915,-0.1953,-0.1975,-0.2029,-0.2089,-0.2144,-0.2168,-0.2202,-0.2194,-0.2182,-0.2179,-0.2167,-0.2173,-0.2148,-0.214,-0.2238,-0.2238,-0.2238,-0.2238,0,0,-0.1662,-0.1743,-0.175,-0.1753,-0.182,-0.1842,-0.1902,-0.1939,-0.196,-0.2029,-0.2041,-0.2136,-0.2141,-0.2179,-0.2195,-0.2176,-0.2133,-0.2171,-0.2169,-0.2117,-0.2041,-0.1954,-0.1937,-0.2107,-0.2105,-0.2104,-0.2036,0,-0.1672,-0.1737,-0.178,-0.1816,-0.1837,-0.1875,-0.1921,-0.1964,-0.201,-0.2036,-0.2074,-0.2107,-0.2153,-0.2168,-0.216,-0.2136,-0.2111,-0.2152,-0.2069,-0.2067,-0.1964,-0.1925,-0.178,-0.1699,-0.2029,-0.2028,-0.2027,0,-0.17,-0.1728,-0.1769,-0.1809,-0.182,-0.1853,-0.189,-0.1937,-0.1989,-0.2027,-0.2062,-0.2081,-0.209,-0.2113,-0.2081,-0.2099,-0.2073,-0.205,-0.2046,-0.1967,-0.1964,-0.175,-0.1673,-0.2014,-0.2015,-0.2016,-0.2016,0,-0.1655,-0.1721,-0.1738,-0.1753,-0.1814,-0.183,-0.1864,-0.1928,-0.1951,-0.1994,-0.2015,-0.2033,-0.2041,-0.2013,-0.2017,-0.2033,-0.1948,-0.1965,-0.1859,-0.1854,-0.1716,-0.17,-0.1906,-0.1906,-0.1906,-0.1907,-0.1907,0,-0.1651,-0.1665,-0.1717,-0.1718,-0.1729,-0.179,-0.1811,-0.1862,-0.1915,-0.1928,-0.1989,-0.1993,-0.2009,-0.1982,-0.1977,-0.1895,-0.1923,-0.1838,-0.1816,-0.1706,-0.169,-0.1959,-0.1966,-0.1904,-0.1905,-0.1905,-0.1906,0,-0.1619,-0.1659,-0.1654,-0.169,-0.1711,-0.1709,-0.1769,-0.1784,-0.1859,-0.1874,-0.1879,-0.1938,-0.1902,-0.1899,-0.1846,-0.1831,-0.1765,-0.1724,-0.1603,-0.1567,-0.171,-0.1718,-0.159,-0.1586,-0.1583,-0.158,-0.1577,0,-0.1618,-0.1627,-0.1613,-0.1593,-0.1607,-0.1631,-0.1657,-0.1744,-0.1761,-0.1837,-0.1826,-0.1814,-0.1778,-0.1685,-0.1621,-0.1541,-0.1647,-0.1389,-0.1392,-0.1679,-0.1671,-0.1684,-0.1695,-0.1211,-0.1206,-0.1201,-0.1198,0,-0.1592,-0.1576,-0.1545,-0.1507,-0.1503,-0.151,-0.1552,-0.1562,-0.1659,-0.1683,-0.169,-0.1658,-0.1569,-0.1412,-0.1321,-0.1277,-0.1392,-0.1298,-0.1594,-0.1316,-0.1315,-0.1311,-0.1335,-0.116,-0.1164,-0.1167,-0.1169,-0.1171,-0.1543,-0.1507,-0.1455,-0.1393,-0.1389,-0.1375,-0.1348,-0.1398,-0.1414,-0.1423,-0.1498,-0.1415,-0.1359,-0.1123,-0.1041,-0.099,-0.1099,-0.1072,-0.1087,-0.1107,-0.1077,-0.107,-0.0865,-0.0867,-0.0869,-0.087,-0.0872,0,-0.151,-0.1452,-0.1366,-0.1277,-0.1209,-0.1252,-0.1261,-0.1218,-0.1189,-0.122,-0.1204,-0.1051,-0.091,-0.0873,-0.0707,-0.0668,-0.0691,-0.0661,-0.0695,-0.0731,-0.0763,-0.0719,-0.0411,-0.041,-0.0409,-0.0408,0,0,-0.1475,-0.1387,-0.1303,-0.1113,-0.1061,-0.0975,-0.095,-0.0912,-0.0901,-0.0856,-0.0823,-0.0872,-0.0841,-0.0641,-0.057,-0.0462,-0.0604,-0.0435,-0.0799,-0.0874,-0.0906,-0.0983,-0.0953,0,0,0,0,0]},{"header":{"parameterUnit":"m.s-1","parameterCategory":2,"la1":30.2991,"la2":30.254,"lo1":-89.0895,"lo2":-89.0444,"dy":0.0017,"dx":0.0017,"nx":28,"ny":28,"refTime":"2025-03-23T03:00:00:Z","depth":"2","parameterNumber":3,"parameterNumberName":"V-component_of_CURRENTS"},"data":[0,0,0,0,0,0,0,0,0,0,0,0,0,0,0,0,0,0,0,0,0,0,0,0,0,0,0,0,0,0,0,0,0,0,0,0,0,0,0,0,0,0,0,0,0,0,0,0,0,0,0,0,0,0,0,0,0,0,-0.0171,-0.017,0,-0.0144,-0.0144,-0.0144,-0.0104,-0.0103,-0.0103,-0.0102,0.0063,0.0066,0.007,0,0,0,0,0,0,0,0,0,0,0,0,0,-0.0167,-0.0167,-0.0171,-0.017,-0.017,-0.0144,-0.0144,-0.0144,-0.0104,-0.0103,-0.0102,-0.0101,0.0061,0.0066,0.007,0,0,0,0,0,0,0,0,0,0,0,0,0,-0.0158,-0.0167,-0.0171,-0.0147,-0.0144,-0.0145,-0.0144,-0.0144,-0.0104,-0.0103,-0.0102,-0.0101,0.006,0.0065,0.0071,0.0083,0,0,0.0088,0.009,0,0,0,0,0,0,0,0,-0.0158,-0.0158,-0.0151,-0.0149,-0.0146,-0.0126,-0.0082,-0.0061,-0.0105,-0.012,-0.0102,-0.0101,0.0012,0.0021,0.0021,0.009,0.0097,0.0088,0.0091,0.0094,0.0095,0,0,0,0,0,0,0,-0.0159,-0.0159,-0.0161,-0.0151,-0.0147,-0.0131,-0.0128,-0.0079,-0.0058,-0.0119,-0.0115,-0.0112,0.0014,0.0016,0.0026,0.01,0.0088,0.0093,0.0096,0.0098,0.0242,0.0243,0,0,0,0,0,0,-0.0164,-0.016,-0.0162,-0.016,-0.0149,-0.0132,-0.0129,-0.0134,-0.0062,-0.0051,-0.0113,-0.0111,0.0006,0.0019,0.0032,0.007,0.0094,0.0099,0.0102,0.0242,0.0242,0.0243,0,0,0,0,0,0,-0.0164,-0.0165,-0.0163,-0.0158,-0.0157,-0.0133,-0.0139,-0.0134,-0.0122,-0.0059,-0.0045,-0.0105,0.0007,0.0024,0.0079,0.0076,0.0101,0.0106,0.0241,0.0242,0.0243,0.0134,0,0,0,0,0,0,-0.0164,-0.0165,-0.0173,-0.0159,-0.0157,-0.0167,-0.0139,-0.0134,-0.0123,-0.0118,-0.0048,-0.0032,0.0009,0.007,0.0085,0.0084,0.0111,0.0241,0.0242,0.0242,0.0136,0.013,0.0125,0,0,0,0,0,-0.0164,-0.0186,-0.0174,-0.0174,-0.0168,-0.0168,-0.0166,-0.0145,-0.0123,-0.0128,-0.0075,-0.0034,0.0087,0.0075,0.0091,0.0092,0.024,0.0241,0.0242,0.0139,0.0132,0.0125,0,0,0,0,0,0,-0.0189,-0.0183,-0.0169,-0.0187,-0.0177,-0.0161,-0.0166,-0.0145,-0.0111,-0.0098,-0.0033,-0.0015,0.0026,0.0083,0.0068,0.0141,0.0173,0.0177,0.0089,0.0083,0.0077,0.0057,0.0115,0,0,0,0,0,-0.0198,-0.021,-0.0196,-0.0209,-0.0207,-0.0183,-0.018,-0.0163,-0.0131,-0.0116,-0.0069,-0.0006,0.004,0.0081,0.0123,0.0169,0.0213,0.0186,0.018,0.0175,0.0172,0.0209,0.0205,0.0247,0.0247,0.0247,0,0,-0.0211,-0.0209,-0.0215,-0.0215,-0.0205,-0.021,-0.0179,-0.0177,-0.0172,-0.01,-0.0077,-0.0033,0.0045,0.008,0.0107,0.0133,0.0191,0.0176,0.017,0.0172,0.021,0.0205,0.0201,0.0247,0.0247,0.0247,0,0,-0.0249,-0.024,-0.0265,-0.0257,-0.0246,-0.0231,-0.0229,-0.021,-0.0193,-0.0159,-0.0117,-0.0073,0.0012,0.0048,0.0086,0.0085,0.0145,0.0108,0.0078,0.0113,0.0109,0.0106,0.0166,0.0169,0.0121,0.0121,0.0121,0,-0.0265,-0.029,-0.0271,-0.0286,-0.0283,-0.0241,-0.0258,-0.0237,-0.0201,-0.0187,-0.0155,-0.006,-0.0003,0.0038,0.0033,0.0069,0.0106,0.0088,0.0101,0.0099,0.0098,0.016,0.0165,0.0116,0.0116,0.0117,0.0117,0,-0.0317,-0.0331,-0.0343,-0.0346,-0.034,-0.0348,-0.0315,-0.0302,-0.0262,-0.0235,-0.0191,-0.0123,-0.0059,-0.0038,0.0001,0.002,0.0055,0.007,0.0106,0.0086,0.0155,0.0162,0.0108,0.011,0.0112,0.0113,0,0,-0.0367,-0.0381,-0.0384,-0.0392,-0.0371,-0.0373,-0.0361,-0.0343,-0.0328,-0.0278,-0.0257,-0.0187,-0.0148,-0.0103,-0.0055,-0.0022,0.0001,0.0017,0.0021,0.0056,0.0094,0.0115,0.0126,0.0008,0.0009,0.0009,0.0148,0,-0.0414,-0.0462,-0.0449,-0.0475,-0.0493,-0.0447,-0.0439,-0.0409,-0.0362,-0.033,-0.0257,-0.0215,-0.017,-0.014,-0.0104,-0.0031,0.0013,-0.0036,0.0127,0.0133,0.0135,0.0131,0.0126,0.0247,0.0155,0.0156,0.0157,0,-0.0471,-0.0492,-0.0539,-0.0539,-0.0541,-0.0542,-0.0513,-0.05,-0.0439,-0.0399,-0.0342,-0.028,-0.0218,-0.018,-0.0055,-0.0091,-0.0007,0.0054,0.0061,0.0122,0.0166,0.0254,0.0264,0.0169,0.0168,0.0167,0.0167,0,-0.0527,-0.0553,-0.0594,-0.0594,-0.0586,-0.0588,-0.0575,-0.0525,-0.0509,-0.0444,-0.041,-0.0328,-0.0266,-0.0176,-0.0035,-0.0046,0.0103,0.0113,0.0218,0.0223,0.0273,0.028,0.0198,0.0198,0.0197,0.0197,0.0196,0,-0.059,-0.0619,-0.0622,-0.0643,-0.0668,-0.0639,-0.0645,-0.0614,-0.0565,-0.0539,-0.0452,-0.0396,-0.0266,-0.0156,-0.0047,0.0114,0.0108,0.0214,0.0253,0.0238,0.024,0.0215,0.0215,0.0202,0.0201,0.02,0.0199,0,-0.0657,-0.0662,-0.0699,-0.07,-0.0702,-0.0716,-0.07,-0.0695,-0.0638,-0.0597,-0.0577,-0.0442,-0.029,-0.0147,0.0026,0.0116,0.0254,0.0314,0.03,0.0333,0.0357,0.035,0.0444,0.0446,0.0447,0.0449,0.045,0,-0.0699,-0.0731,-0.0748,-0.0761,-0.0766,-0.0778,-0.0783,-0.0742,-0.0726,-0.0613,-0.0593,-0.0437,-0.0299,-0.0033,0.0137,0.0339,0.0325,0.0441,0.0411,0.0351,0.0379,0.037,0.0362,0.0453,0.0454,0.0455,0.0456,0,-0.0772,-0.0776,-0.0801,-0.0828,-0.0842,-0.0858,-0.0856,-0.0857,-0.0787,-0.072,-0.059,-0.0468,-0.0197,0.0035,0.0277,0.0384,0.0399,0.0463,0.0416,0.0375,0.0366,0.0391,0.0382,0.0463,0.0462,0.0462,0.0461,0.0461,-0.0809,-0.0843,-0.0867,-0.0882,-0.0903,-0.092,-0.0926,-0.0899,-0.0854,-0.0726,-0.0594,-0.0376,-0.0148,0.021,0.037,0.0495,0.0496,0.0533,0.0528,0.0523,0.0482,0.0474,0.0586,0.0586,0.0586,0.0586,0.0586,0,-0.0863,-0.0895,-0.0916,-0.0935,-0.0956,-0.0953,-0.0956,-0.0927,-0.0861,-0.0707,-0.0539,-0.0254,0.0019,0.0223,0.0446,0.0586,0.056,0.0589,0.054,0.0534,0.0528,0.0484,0.0591,0.0591,0.0591,0.0591,0,0,-0.0887,-0.0938,-0.0937,-0.0964,-0.0978,-0.0989,-0.0986,-0.0924,-0.0813,-0.0639,-0.0468,-0.0218,0.005,0.0209,0.0389,0.0494,0.0465,0.0491,0.0479,0.0396,0.0388,0.0497,0.0422,0,0,0,0,0]}],[{"header":{"parameterUnit":"m.s-1","parameterCategory":2,"la1":30.2991,"la2":30.254,"lo1":-89.0895,"lo2":-89.0444,"dy":0.0017,"dx":0.0017,"nx":28,"ny":28,"refTime":"2025-03-23T03:00:00:Z","depth":"4","parameterNumber":2,"parameterNumberName":"U-component_of_CURRENTS"},"data":[0,0,0,0,0,0,0,0,0,0,0,0,0,0,0,0,0,0,0,0,0,0,0,0,0,0,0,0,0,0,0,0,0,0,0,0,0,0,0,0,0,0,0,0,0,0,0,0,0,0,0,0,0,0,0,0,0,0,-0.1085,-0.1086,0,-0.1151,-0.1152,-0.1152,-0.118,-0.118,-0.118,-0.118,-0.1216,-0.1217,-0.1218,0,0,0,0,0,0,0,0,0,0,0,0,0,-0.1009,-0.101,-0.1085,-0.1086,-0.1087,-0.1151,-0.1152,-0.1153,-0.118,-0.118,-0.118,-0.118,-0.1216,-0.1217,-0.1218,0,0,0,0,0,0,0,0,0,0,0,0,0,-0.1054,-0.101,-0.1085,-0.1109,-0.1111,-0.1151,-0.1152,-0.1153,-0.118,-0.118,-0.118,-0.118,-0.1215,-0.1217,-0.1218,-0.123,0,0,-0.1223,-0.1224,0,0,0,0,0,0,0,0,-0.1052,-0.1057,-0.1104,-0.1107,-0.111,-0.1158,-0.1138,-0.1177,-0.118,-0.1153,-0.118,-0.118,-0.1194,-0.1198,-0.121,-0.1232,-0.1233,-0.1223,-0.1224,-0.1225,-0.1225,0,0,0,0,0,0,0,-0.1048,-0.1055,-0.111,-0.1105,-0.1109,-0.1125,-0.1131,-0.1146,-0.1173,-0.1156,-0.1158,-0.1167,-0.1196,-0.1208,-0.1211,-0.1234,-0.1223,-0.1225,-0.1226,-0.1226,-0.1328,-0.133,0,0,0,0,0,0,-0.1041,-0.1051,-0.1108,-0.1112,-0.1081,-0.1126,-0.1133,-0.1142,-0.1173,-0.1178,-0.1167,-0.1168,-0.1206,-0.1209,-0.1212,-0.1268,-0.1225,-0.1226,-0.1227,-0.1327,-0.1329,-0.1331,0,0,0,0,0,0,-0.1039,-0.1045,-0.1106,-0.1084,-0.1093,-0.1128,-0.1138,-0.1144,-0.117,-0.1182,-0.1186,-0.1188,-0.1206,-0.121,-0.1246,-0.1268,-0.1227,-0.1228,-0.1324,-0.1327,-0.133,-0.1353,0,0,0,0,0,0,-0.1036,-0.1044,-0.1055,-0.1083,-0.1094,-0.1135,-0.1138,-0.1145,-0.1175,-0.1177,-0.1202,-0.1204,-0.1206,-0.1244,-0.1247,-0.1269,-0.123,-0.1322,-0.1326,-0.1329,-0.135,-0.1356,-0.1362,0,0,0,0,0,-0.1033,-0.1043,-0.1055,-0.1062,-0.1105,-0.1136,-0.1143,-0.1167,-0.1176,-0.119,-0.1214,-0.1204,-0.1268,-0.1246,-0.125,-0.1273,-0.1321,-0.1325,-0.1329,-0.1348,-0.1355,-0.1362,0,0,0,0,0,0,-0.1019,-0.1048,-0.1061,-0.1081,-0.1111,-0.1141,-0.116,-0.1176,-0.1208,-0.1215,-0.1224,-0.1229,-0.1268,-0.1273,-0.125,-0.1316,-0.1294,-0.1299,-0.1307,-0.1314,-0.132,-0.1311,-0.1231,0,0,0,0,0,-0.102,-0.1033,-0.1067,-0.1085,-0.1102,-0.1135,-0.1154,-0.1172,-0.12,-0.1215,-0.1235,-0.1261,-0.1287,-0.1302,-0.1323,-0.1357,-0.1352,-0.1378,-0.1383,-0.1388,-0.1386,-0.1407,-0.1413,-0.1344,-0.1344,-0.1344,0,0,-0.1023,-0.1038,-0.1048,-0.1083,-0.111,-0.114,-0.1147,-0.118,-0.121,-0.1213,-0.1263,-0.128,-0.1302,-0.1341,-0.136,-0.1348,-0.1406,-0.1393,-0.1397,-0.1392,-0.1412,-0.1418,-0.1424,-0.1347,-0.1346,-0.1346,0,0,-0.1023,-0.1048,-0.1059,-0.1087,-0.1126,-0.115,-0.1163,-0.1205,-0.1231,-0.1277,-0.1291,-0.1321,-0.1365,-0.1382,-0.1396,-0.1448,-0.1435,-0.1464,-0.1484,-0.1505,-0.151,-0.1514,-0.1511,-0.1515,-0.1467,-0.1467,-0.1467,0,-0.1027,-0.1044,-0.1069,-0.1091,-0.1121,-0.1156,-0.1187,-0.1219,-0.1269,-0.1294,-0.1297,-0.1369,-0.1382,-0.1426,-0.1448,-0.1458,-0.1463,-0.1451,-0.1509,-0.1514,-0.1518,-0.1514,-0.1518,-0.1469,-0.1469,-0.1468,-0.1468,0,-0.1032,-0.106,-0.1072,-0.1112,-0.1149,-0.118,-0.123,-0.1268,-0.1304,-0.1333,-0.1389,-0.1412,-0.1451,-0.1466,-0.1473,-0.1518,-0.151,-0.151,-0.1484,-0.1526,-0.1519,-0.1523,-0.1471,-0.147,-0.147,-0.147,0,0,-0.1005,-0.1064,-0.107,-0.1102,-0.1165,-0.1197,-0.1253,-0.1311,-0.1349,-0.1394,-0.144,-0.1485,-0.1495,-0.1513,-0.1526,-0.1546,-0.1577,-0.1546,-0.1546,-0.1528,-0.1612,-0.1473,-0.1463,-0.1592,-0.1593,-0.1594,-0.1592,0,-0.1005,-0.1042,-0.1079,-0.114,-0.1172,-0.1234,-0.1284,-0.1343,-0.139,-0.1442,-0.1472,-0.1517,-0.1515,-0.1538,-0.1558,-0.1578,-0.159,-0.1576,-0.1587,-0.1587,-0.1446,-0.1464,-0.1597,-0.1595,-0.1596,-0.1596,-0.1597,0,-0.0996,-0.1024,-0.1073,-0.1161,-0.1184,-0.1228,-0.132,-0.1371,-0.1444,-0.148,-0.1523,-0.1549,-0.159,-0.1581,-0.1618,-0.1614,-0.1615,-0.1619,-0.162,-0.1481,-0.1454,-0.1549,-0.1603,-0.1603,-0.1602,-0.1602,-0.1601,0,-0.0954,-0.1029,-0.1069,-0.1097,-0.1191,-0.1236,-0.1296,-0.1379,-0.1429,-0.1504,-0.1539,-0.1585,-0.1615,-0.1632,-0.1635,-0.1641,-0.1659,-0.1666,-0.1536,-0.1526,-0.1641,-0.1636,-0.1684,-0.1684,-0.1684,-0.1684,-0.1684,0,-0.093,-0.0965,-0.1055,-0.1073,-0.1138,-0.1221,-0.1295,-0.1355,-0.144,-0.149,-0.1553,-0.1582,-0.1634,-0.1648,-0.1646,-0.1584,-0.1665,-0.153,-0.1515,-0.1652,-0.1648,-0.1643,-0.1638,-0.1684,-0.1684,-0.1684,-0.1684,0,-0.0866,-0.0923,-0.0978,-0.1079,-0.1116,-0.1164,-0.1291,-0.1335,-0.1425,-0.149,-0.1516,-0.1593,-0.1594,-0.161,-0.1629,-0.158,-0.1549,-0.1507,-0.1634,-0.1627,-0.1402,-0.14,-0.1366,-0.1361,-0.1357,-0.1353,-0.135,0,-0.0829,-0.0846,-0.0961,-0.0999,-0.1045,-0.1133,-0.1187,-0.1306,-0.1353,-0.1478,-0.1493,-0.1535,-0.1561,-0.1465,-0.1498,-0.145,-0.1434,-0.1416,-0.142,-0.138,-0.137,-0.1374,-0.1376,-0.1344,-0.1342,-0.1341,-0.134,0,-0.0753,-0.0803,-0.0848,-0.0922,-0.0989,-0.1064,-0.1153,-0.1179,-0.1308,-0.1404,-0.1418,-0.1412,-0.1399,-0.1379,-0.1334,-0.1313,-0.1429,-0.1372,-0.1381,-0.1385,-0.1353,-0.1348,-0.1355,-0.1326,-0.1328,-0.1329,-0.133,0,-0.0701,-0.0707,-0.0773,-0.0838,-0.0919,-0.0967,-0.1035,-0.1091,-0.1152,-0.129,-0.1289,-0.1327,-0.1388,-0.1307,-0.1279,-0.1222,-0.1209,-0.1186,-0.1205,-0.1221,-0.117,-0.1108,-0.0982,0,0,0,0,0,-0.064,-0.0634,-0.0684,-0.0754,-0.0836,-0.088,-0.0996,-0.1066,-0.119,-0.1159,-0.1221,-0.1199,-0.1156,-0.118,-0.1085,-0.12,-0.1207,-0.1087,-0.1189,-0.1245,-0.1262,-0.1211,0,0,0,0,0,0,-0.0599,-0.0619,-0.0643,-0.0673,-0.0701,-0.0776,-0.0843,-0.0933,-0.0928,-0.1049,-0.1021,-0.1111,-0.1071,-0.1167,-0.1051,-0.1054,-0.1091,-0.1114,-0.111,-0.1235,-0.125,-0.1264,-0.1218,0,0,0,0,0]},{"header":{"parameterUnit":"m.s-1","parameterCategory":2,"la1":30.2991,"la2":30.254,"lo1":-89.0895,"lo2":-89.0444,"dy":0.0017,"dx":0.0017,"nx":28,"ny":28,"refTime":"2025-03-23T03:00:00:Z","depth":"4","parameterNumber":3,"parameterNumberName":"V-component_of_CURRENTS"},"data":[0,0,0,0,0,0,0,0,0,0,0,0,0,0,0,0,0,0,0,0,0,0,0,0,0,0,0,0,0,0,0,0,0,0,0,0,0,0,0,0,0,0,0,0,0,0,0,0,0,0,0,0,0,0,0,0,0,0,-0.0154,-0.0154,0,-0.0156,-0.0156,-0.0156,-0.0129,-0.0128,-0.0127,-0.0127,-0.009,-0.0089,-0.0089,0,0,0,0,0,0,0,0,0,0,0,0,0,-0.0123,-0.0124,-0.0154,-0.0154,-0.0154,-0.0156,-0.0156,-0.0156,-0.0129,-0.0128,-0.0127,-0.0126,-0.009,-0.0089,-0.0089,0,0,0,0,0,0,0,0,0,0,0,0,0,-0.0131,-0.0124,-0.0154,-0.0142,-0.0141,-0.0156,-0.0156,-0.0156,-0.0129,-0.0128,-0.0127,-0.0126,-0.009,-0.009,-0.0089,-0.0105,0,0,-0.0087,-0.0087,0,0,0,0,0,0,0,0,-0.0131,-0.0132,-0.0143,-0.0142,-0.0141,-0.0142,-0.0131,-0.0137,-0.0129,-0.0132,-0.0127,-0.0125,-0.0105,-0.0103,-0.0105,-0.0103,-0.0102,-0.0087,-0.0087,-0.0087,-0.0086,0,0,0,0,0,0,0,-0.013,-0.0132,-0.0154,-0.0144,-0.0142,-0.0135,-0.0135,-0.0132,-0.0123,-0.0132,-0.013,-0.0132,-0.0104,-0.0105,-0.0104,-0.0101,-0.0087,-0.0087,-0.0086,-0.0086,-0.0102,-0.0102,0,0,0,0,0,0,-0.0133,-0.0131,-0.0154,-0.0154,-0.0135,-0.0136,-0.0136,-0.0142,-0.0123,-0.012,-0.0133,-0.0131,-0.0107,-0.0104,-0.0102,-0.0117,-0.0087,-0.0086,-0.0086,-0.0101,-0.0102,-0.0103,0,0,0,0,0,0,-0.0133,-0.0135,-0.0154,-0.0143,-0.0145,-0.0138,-0.0144,-0.0142,-0.014,-0.0125,-0.0121,-0.0132,-0.0106,-0.0103,-0.0103,-0.0115,-0.0086,-0.0085,-0.01,-0.0101,-0.0102,-0.0148,0,0,0,0,0,0,-0.0132,-0.0135,-0.0142,-0.0144,-0.0146,-0.017,-0.0145,-0.0143,-0.0144,-0.0141,-0.0123,-0.0119,-0.0105,-0.0104,-0.0103,-0.0114,-0.0085,-0.0099,-0.01,-0.0102,-0.0145,-0.015,-0.0154,0,0,0,0,0,-0.0131,-0.015,-0.0143,-0.0146,-0.0155,-0.0171,-0.0171,-0.0162,-0.0145,-0.0153,-0.0138,-0.0119,-0.0112,-0.0105,-0.0103,-0.0114,-0.0098,-0.01,-0.0102,-0.0143,-0.0149,-0.0154,0,0,0,0,0,0,-0.0141,-0.0149,-0.0141,-0.0161,-0.0167,-0.0166,-0.0175,-0.0165,-0.0161,-0.0153,-0.0131,-0.0127,-0.0132,-0.0119,-0.0111,-0.0122,-0.0101,-0.0103,-0.0133,-0.0139,-0.0144,-0.0139,-0.0084,0,0,0,0,0,-0.0147,-0.0162,-0.0165,-0.0181,-0.0185,-0.0178,-0.0182,-0.0176,-0.0172,-0.0168,-0.0156,-0.0143,-0.014,-0.0135,-0.0131,-0.0139,-0.0095,-0.0144,-0.0149,-0.0153,-0.0148,-0.0093,-0.0092,-0.0108,-0.0108,-0.0108,0,0,-0.0155,-0.0161,-0.017,-0.0184,-0.0184,-0.0201,-0.0178,-0.0189,-0.0197,-0.0166,-0.0173,-0.0161,-0.0146,-0.0155,-0.0155,-0.0143,-0.0125,-0.0155,-0.0158,-0.0151,-0.0094,-0.0093,-0.0091,-0.0109,-0.0109,-0.0109,0,0,-0.0187,-0.0184,-0.0209,-0.0215,-0.0222,-0.022,-0.0223,-0.0225,-0.0218,-0.0227,-0.0205,-0.0199,-0.0197,-0.0187,-0.0181,-0.0208,-0.0152,-0.0209,-0.0226,-0.0174,-0.0171,-0.0169,-0.0106,-0.0097,-0.0209,-0.0209,-0.0209,0,-0.0195,-0.0224,-0.0219,-0.0241,-0.0248,-0.0229,-0.0253,-0.025,-0.025,-0.0243,-0.0235,-0.022,-0.0212,-0.0208,-0.0221,-0.0218,-0.0171,-0.0207,-0.0178,-0.0174,-0.0171,-0.0107,-0.0097,-0.0211,-0.0211,-0.0211,-0.0211,0,-0.0244,-0.0263,-0.0278,-0.0297,-0.0304,-0.0321,-0.0314,-0.0315,-0.0302,-0.0292,-0.0285,-0.027,-0.0255,-0.0258,-0.025,-0.0229,-0.0198,-0.019,-0.016,-0.0171,-0.0104,-0.0093,-0.0215,-0.0214,-0.0213,-0.0213,0,0,-0.027,-0.0306,-0.031,-0.0324,-0.0331,-0.0343,-0.0352,-0.0354,-0.0347,-0.0339,-0.0327,-0.0327,-0.0302,-0.0293,-0.0276,-0.0238,-0.0181,-0.0207,-0.0203,-0.0139,-0.0047,-0.0059,-0.0047,-0.0161,-0.016,-0.0159,-0.0007,0,-0.0308,-0.0363,-0.0366,-0.0404,-0.0428,-0.0408,-0.0416,-0.0408,-0.039,-0.0373,-0.0341,-0.0327,-0.0319,-0.0307,-0.027,-0.0205,-0.0154,-0.0222,-0.005,-0.0045,-0.005,-0.0036,-0.0154,0.0002,0.0004,0.0006,0.0008,0,-0.0353,-0.0381,-0.0433,-0.0453,-0.0459,-0.0476,-0.0468,-0.0472,-0.0437,-0.0417,-0.0386,-0.035,-0.0305,-0.0291,-0.0169,-0.0208,-0.013,-0.0074,-0.0067,-0.0053,-0.0037,0.0014,0.0029,0.0027,0.0026,0.0024,0.0023,0,-0.0378,-0.0424,-0.0466,-0.0475,-0.0497,-0.0507,-0.0511,-0.0488,-0.0482,-0.0437,-0.0413,-0.0351,-0.0309,-0.0215,-0.0112,-0.0127,0.004,0.0037,0.0107,0.0108,0.0095,0.0091,0.0141,0.0141,0.0141,0.014,0.014,0,-0.0414,-0.0445,-0.0484,-0.0507,-0.0541,-0.0539,-0.0556,-0.0543,-0.0514,-0.0495,-0.0437,-0.0393,-0.0285,-0.0183,-0.0093,0.0042,0.0063,0.0115,0.0146,0.0072,0.0063,0.0104,0.0098,0.0146,0.0145,0.0144,0.0143,0,-0.0436,-0.0464,-0.0513,-0.0549,-0.0561,-0.0583,-0.0597,-0.06,-0.0562,-0.053,-0.0512,-0.0407,-0.027,-0.0154,0.0015,0.0069,0.0195,0.0241,0.0167,0.019,0.0229,0.0218,0.0342,0.0342,0.0343,0.0344,0.0344,0,-0.0453,-0.0484,-0.0546,-0.0577,-0.0598,-0.063,-0.0647,-0.0631,-0.0623,-0.0532,-0.051,-0.0373,-0.0293,-0.005,0.0057,0.0243,0.0255,0.0321,0.0257,0.0232,0.025,0.0238,0.0227,0.0345,0.0345,0.0346,0.0346,0,-0.0477,-0.0504,-0.0544,-0.061,-0.0648,-0.0682,-0.07,-0.0695,-0.0652,-0.0616,-0.0482,-0.0353,-0.0194,-0.0035,0.0108,0.0232,0.027,0.0328,0.0327,0.0268,0.0238,0.0252,0.024,0.0348,0.0348,0.0348,0.0348,0,-0.0487,-0.0518,-0.0576,-0.0629,-0.0684,-0.0715,-0.0724,-0.069,-0.0667,-0.0558,-0.0509,-0.0331,-0.0224,-0.0037,0.0094,0.0211,0.0231,0.0248,0.0252,0.025,0.0156,0.01,0.0206,0,0,0,0,0,-0.0488,-0.0525,-0.0586,-0.0646,-0.0706,-0.0732,-0.0747,-0.0742,-0.0695,-0.0601,-0.0551,-0.0395,-0.0172,-0.0072,0.0047,0.0078,0.0224,0.0216,0.0239,0.0362,0.0359,0.0259,0,0,0,0,0,0,-0.0487,-0.0546,-0.0583,-0.0655,-0.0696,-0.0747,-0.0759,-0.073,-0.0668,-0.0597,-0.0473,-0.0382,-0.0169,-0.0234,0.0048,0.0084,0.0109,0.0328,0.033,0.0363,0.0361,0.0358,0.0255,0,0,0,0,0]}]]